Погода в Черкехе

Россия / Республика Саха (Якутия)     62°11′01″N   133°13′32″E
темп.,
°C
ветер,
м/с
пор.,
м/с
влажн.,
%
обл.,
%
осадки,
мм/ч
давл.,
гПа
погр.,
м
3 марта, ср
ср300:00−29зсз1298100 0.1 102319
03:00−30з1298100 0.1 102224
06:00−30з1298100 0.1 102220
09:00−29з1295100 0.1 1021183
12:00−27з2286100 0.1 1020563
15:00−26зсз2386100 0.1 1018674
18:00−28зсз2298100 0.1 101832
21:00−29зсз2398100 0.1 1018110
4 марта, чт
чт400:00−30з2398100 0.1 101780
03:00−31з2498100 0.2 1016110
06:00−32з2498100 0.1 1016121
09:00−31зсз3594100 0.2 1016415
12:00−30зсз3486100 0.1 1017712
15:00−29зсз3487100 0.1 1018793
18:00−32зсз3495100 0.0 101966
21:00−36зсз349899 0.1 102172
5 марта, пт
пт500:00−39зсз33987 0.0 102236
03:00−40з349740 0.0 102462
06:00−41з359795 0.0 102594
09:00−39з359592 0.0 1025206
12:00−34з3587100 0.0 1026378
15:00−31зсз358899 0.0 1025479
18:00−34з3495100 0.0 102650
21:00−36з3498100 0.0 102671
6 марта, сб
сб600:00−37з339799 0.0 102552
03:00−36з3597100 0.0 1025134
06:00−37з2496100 0.0 1025116
09:00−35зсз2393100 0.0 1025256
12:00−31зсз2286100 0.0 1025380
15:00−28з2284100 0.0 1024490
18:00−32з1195100 0.0 102519
21:00−34зсз119993 0.0 102519
7 марта, вс
вс700:00−35зсз1110093 0.0 102519
03:00−36зюз119991 0.0 102519
06:00−37зюз1110043 0.0 102519
09:00−33юз119522 0.0 102584
12:00−29юз118764 0.0 1024333
15:00−27юз008682 0.0 1023331
18:00−32юв119891 0.0 102319
21:00−33вюв119389 0.0 102419